Flag for USA

Past Weather in Bullhead City, Arizona, USA — Yesterday and Last 2 Weeks

Now
111 °F

Clear.


Feels Like: 105 °F
Forecast: 117 / 88 °F
Wind: 14 mph from Southeast

Location: Laughlin/Bullhead International Airport

Current Time: Jul 12, 2020 at 9:43:20 pm

Latest Report: Jul 12, 2020 at 9:15 pm


Visibility: 10 mi

Pressure: 29.61 "Hg

Humidity: 9%

Dew Point: 41 °F

Location of Bullhead CityLocation

Past Weather in Bullhead City — Graph

°F

Bullhead City Temperature Yesterday

Maximum temperature yesterday: 118 °F (at 3:47 pm)
Minimum temperature yesterday: 88 °F (at 5:30 am)
Average temperature yesterday: 103 °F

High & Low Weather Summary for the Past Weeks

 TemperatureHumidityPressure
High118 °F (Jul 11, 3:47 pm)63% (Jun 28, 3:35 am)29.93 "Hg (Jun 28, 3:35 am)
Low73 °F (Jun 30, 4:55 am)2% (Jul 6, 5:55 pm)29.39 "Hg (Jun 28, 5:55 pm)
Average94 °F14%29.73 "Hg
* Reported Jun 27 8:15 pm — Jul 12 8:30 pm, Bullhead City. Weather by CustomWeather, © 2020

Note: Actual official high and low records may vary slightly from our data, if they occured in-between our weather recording intervals... More about our weather records

Bullhead City Weather History for the Previous 24 Hours

Scroll right to see more
 ConditionsComfort  
Time TempWeatherWind HumidityBarometerVisibility
8:30 pm
Sun, Jul 12
113 °FClear.8 mph9%29.60 "Hg10 mi
8:15 pm113 °FClear.7 mph9%29.60 "Hg10 mi
7:55 pm115 °FClear.7 mph8%29.60 "Hg10 mi
7:35 pm115 °FSunny.7 mph8%29.60 "Hg10 mi
7:15 pm117 °FSunny.10 mph8%29.59 "Hg10 mi
6:35 pm117 °FSunny.14 mph8%29.59 "Hg10 mi
5:55 pm118 °FSunny.15 mph7%29.59 "Hg10 mi
4:48 pm118 °FScattered clouds.14 mph8%29.60 "Hg20 mi
3:53 pm118 °FScattered clouds.21 mph8%29.62 "Hg10 mi
2:48 pm118 °FScattered clouds.18 mph9%29.65 "Hg10 mi
1:53 pm118 °FScattered clouds.14 mph9%29.68 "Hg10 mi
12:50 pm117 °FScattered clouds.7 mph9%29.72 "Hg20 mi
11:50 am113 °FPassing clouds.7 mph11%29.75 "Hg10 mi
10:49 am108 °FPassing clouds.No wind15%29.78 "Hg10 mi
9:50 am102 °FPassing clouds.6 mph17%29.80 "Hg10 mi
8:48 am99 °FPassing clouds.5 mph21%29.81 "Hg10 mi
7:47 am99 °FPassing clouds.No wind17%29.81 "Hg20 mi
7:30 am95 °FSunny.No wind18%29.81 "Hg10 mi
7:15 am95 °FSunny.No wind18%29.80 "Hg10 mi
6:50 am93 °FSunny.No wind19%29.79 "Hg10 mi
6:35 am91 °FSunny.3 mph21%29.78 "Hg10 mi
5:55 am91 °FSunny.No wind20%29.78 "Hg10 mi
5:30 am93 °FClear.No wind17%29.77 "Hg10 mi
5:10 am95 °FClear.No wind18%29.76 "Hg10 mi
4:55 am93 °FClear.6 mph19%29.77 "Hg10 mi
4:30 am93 °FClear.No wind19%29.76 "Hg10 mi
4:10 am95 °FClear.No wind16%29.75 "Hg10 mi
3:50 am95 °FClear.No wind18%29.75 "Hg10 mi
3:35 am95 °FClear.No wind18%29.75 "Hg10 mi
3:15 am95 °FClear.No wind18%29.75 "Hg10 mi
2:55 am97 °FClear.No wind17%29.75 "Hg10 mi
2:30 am97 °FClear.No wind17%29.76 "Hg10 mi
2:10 am97 °FClear.5 mph17%29.76 "Hg10 mi
1:55 am99 °FClear.3 mph15%29.76 "Hg10 mi
1:35 am99 °FClear.6 mph15%29.76 "Hg10 mi
1:10 am99 °FClear.5 mph16%29.77 "Hg10 mi
12:55 am100 °FClear.No wind14%29.76 "Hg10 mi
12:30 am102 °FClear.No wind13%29.76 "Hg10 mi
12:10 am102 °FClear.No wind14%29.77 "Hg10 mi
11:50 pm
Sat, Jul 11
104 °FClear.3 mph12%29.77 "Hg10 mi
11:30 pm106 °FClear.6 mph12%29.77 "Hg10 mi
11:10 pm104 °FClear.No wind13%29.77 "Hg10 mi
10:50 pm106 °FClear.6 mph12%29.77 "Hg10 mi
10:30 pm106 °FClear.No wind13%29.76 "Hg10 mi
10:15 pm106 °FClear.6 mph13%29.76 "Hg10 mi
9:55 pm109 °FClear.No wind10%29.76 "Hg10 mi
9:30 pm109 °FClear.No wind10%29.76 "Hg10 mi
9:15 pm109 °FClear.No wind10%29.75 "Hg10 mi
Weather by CustomWeather, © 2020

See weather overview